{"data":{"norad_id":66656,"epoch":"2026-05-24T18:13:48.898272Z","epoch_age_seconds":95977,"freshness":"FRESH","line1":"1 66656U 25274G   26144.75959373  .00001934  00000+0  18989-3 0  9998","line2":"2 66656  97.7482  74.3441 0015422  77.1307 283.1635 14.93258433 26727","mean_motion":14.93258433,"eccentricity":0.0015422,"inclination_deg":97.7482,"raan_deg":74.3441,"arg_perigee_deg":77.1307,"mean_anomaly_deg":283.1635,"bstar":0.00018989,"rev_number":2672,"period_min":96.433408188226,"perigee_km":577.04082202306,"apogee_km":598.5265077218,"semimajor_km":6965.9206648724,"source":"CELESTRAK","updated_at":"2026-05-25T13:38:06.381319Z"}}